Wind_Gust
13 15 14 13 11 12 12 11 11 10 9 10 9 9 9 10 9 9 9 8 8 9 9 8 8 9 9 11 10 9 10 12 15 15 18 15 16 14 12 12 12 12 12 10 12 15 16 20 17 16 16 15 16 16 16 16 16 15 14 13 15 16 16
17 17 15 14 14 13 13 11 10 11 10 7 8 9 8 10 9 8 8 8 8 9 9 10 9 10 10 10 11 10 10 11 12 11 16 14 13 14 14 13 13 13 14 13 12 10 18 18 18 17 17 16 16 16 15 15 16 15 15 15 16 17 15
16 17 14 15 14 13 14 13 12 11 11 9 8 8 8 9 9 9 8 8 9 10 10 11 10 9 8 9 9 9 10 11 11 13 13 14 12 12 13 12 13 14 14 15 16 15 15 12 17 20 18 16 17 16 13 13 14 15 15 15 15 17 17
16 16 16 16 15 14 15 14 12 11 9 10 9 9 8 9 9 9 8 9 10 10 10 10 9 9 9 9 9 10 11 11 12 12 12 12 12 15 13 14 13 14 14 15 16 16 15 14 18 19 17 16 19 17 13 13 13 15 16 15 16 16 16
17 17 16 16 16 16 16 15 12 11 10 10 9 10 9 9 8 9 9 9 11 10 10 10 9 10 9 9 10 9 11 10 12 14 14 14 14 15 12 10 10 11 11 11 13 13 13 14 15 17 17 19 18 18 18 14 15 16 16 16 17 17 16
15 15 16 15 14 15 16 15 13 12 11 11 10 11 10 8 8 9 8 9 11 11 10 10 11 10 9 9 11 10 12 12 12 12 14 14 15 14 14 12 13 13 12 12 11 11 11 12 14 17 16 15 16 17 18 15 16 15 16 16 17 18 17
15 14 15 16 15 14 14 16 14 13 12 10 11 10 11 9 11 11 10 12 12 12 12 11 11 10 9 11 11 12 12 12 13 13 14 13 13 12 12 13 11 13 12 11 10 10 11 12 14 14 14 14 14 16 16 16 15 17 16 17 16 17 17
14 16 15 15 15 14 13 13 14 12 13 13 12 12 10 11 11 12 12 12 12 12 11 11 11 11 9 10 12 11 11 12 13 13 13 13 13 12 10 11 12 12 11 11 9 8 10 9 11 14 15 17 15 12 13 14 15 14 15 16 16 16 16
13 14 14 14 14 14 13 12 13 11 13 13 13 12 11 11 13 13 13 13 12 12 11 11 10 11 10 10 12 11 11 11 11 11 11 12 12 11 11 11 13 14 12 12 11 10 10 9 10 12 13 12 15 16 13 14 12 14 10 14 17 16 15
13 13 14 14 15 15 14 13 13 12 13 13 14 13 12 12 13 13 14 13 13 12 11 10 10 10 9 10 12 11 10 10 10 11 10 11 11 11 12 11 13 14 13 12 13 12 11 9 10 9 10 10 9 12 16 15 12 13 14 12 12 16 13
14 14 14 16 15 15 14 14 13 14 14 14 15 13 13 14 14 13 14 14 13 13 12 11 11 11 10 11 11 11 11 10 11 11 10 11 11 11 12 13 13 15 13 12 13 11 11 11 11 10 9 8 7 8 10 13 14 10 14 12 13 15 13
13 14 14 15 16 15 15 14 14 14 14 15 16 15 15 15 14 14 14 14 14 14 13 13 12 12 11 13 13 13 11 11 12 12 12 12 12 12 12 13 12 13 12 12 11 11 11 11 12 13 12 12 12 10 9 14 16 12 10 13 12 12 12
16 16 15 15 15 15 16 15 16 14 15 16 16 15 15 15 15 15 14 15 15 15 15 14 13 13 12 13 13 14 14 13 15 14 14 12 14 13 13 13 12 13 12 12 12 11 11 11 10 13 13 13 13 10 8 10 14 16 10 11 11 12 11
14 14 13 13 14 14 14 15 16 14 15 14 15 16 15 15 16 15 16 16 16 15 14 13 13 12 12 13 13 13 14 14 15 14 14 12 12 12 12 14 13 11 9 10 12 11 12 12 11 10 11 11 12 10 9 11 14 15 12 8 8 11 10
13 13 13 13 13 16 16 15 14 13 13 13 15 16 17 15 14 15 15 16 15 15 15 15 13 12 14 13 12 10 11 12 12 13 11 12 11 10 10 11 13 11 10 11 9 13 14 13 12 13 12 10 12 11 9 10 11 12 13 12 10 11 12
13 12 13 12 13 15 15 14 15 15 13 13 13 14 15 16 17 16 16 15 15 15 15 15 13 13 13 13 13 11 9 10 10 11 11 11 12 11 10 10 11 10 9 10 8 9 9 9 10 13 11 11 12 10 10 10 8 12 12 12 10 12 9
11 12 12 13 14 14 16 15 15 16 16 13 15 13 14 16 17 17 17 17 16 15 15 15 15 14 15 14 13 14 12 10 10 10 10 11 12 11 10 9 9 10 9 10 9 9 8 8 8 11 11 11 11 11 9 8 8 8 9 11 9 9 11
11 12 13 13 14 15 16 17 15 17 16 17 15 16 15 15 16 17 17 18 18 17 16 16 15 14 13 12 12 12 12 12 10 10 9 8 4 9 10 9 10 10 9 9 9 10 9 9 10 10 10 11 11 11 9 7 8 7 7 9 10 9 7
12 13 14 15 14 15 16 16 17 16 17 18 18 16 17 16 16 17 17 17 18 18 17 16 16 16 15 14 13 12 11 12 12 12 12 11 11 10 9 9 9 10 10 10 10 9 8 10 9 9 9 9 12 10 9 9 8 8 7 9 8 11 8
12 13 14 15 15 17 16 15 17 17 17 17 18 18 17 17 16 17 18 18 18 18 18 17 16 15 15 15 14 13 12 12 11 11 11 12 12 13 13 13 11 11 11 9 9 10 9 10 10 9 9 9 9 10 9 9 9 8 7 8 9 8 9
11 14 14 15 17 17 17 18 17 16 17 17 18 19 19 19 18 18 18 18 18 17 16 16 16 16 14 14 13 13 13 12 12 12 12 13 13 14 15 16 16 16 16 17 17 16 14 14 12 12 10 10 9 10 9 9 9 9 9 8 9 9 7
10 12 14 15 16 17 17 18 18 19 19 18 18 19 20 22 22 21 20 18 17 15 14 14 14 15 15 14 13 12 12 12 12 13 13 14 14 15 15 15 16 17 17 8 6 7 7 7 12 12 11 10 10 10 9 9 9 10 12 11 12 11 14
10 11 12 13 14 14 16 17 18 19 19 20 19 19 19 19 21 21 21 19 17 15 14 14 9 8 4 10 10 11 12 13 14 14 14 15 15 15 15 16 16 10 8 9 7 7 7 5 5 9 9 13 13 11 10 10 11 11 12 14 12 13 15
8 10 11 12 12 14 15 14 16 18 18 18 17 17 18 19 20 20 20 18 18 16 15 13 15 14 12 7 8 9 11 12 12 13 15 15 15 16 16 17 16 14 11 7 13 11 8 6 8 4 6 9 8 10 10 10 10 8 12 12 11 12 12
10 10 11 12 12 14 14 15 16 17 17 17 17 17 18 20 21 20 21 21 19 18 16 10 15 15 14 13 8 10 9 11 11 13 14 15 16 17 16 15 13 13 15 15 16 15 11 6 5 6 7 7 7 8 8 11 10 9 8 12 12 12 12
11 11 12 13 12 13 14 15 16 17 18 17 18 20 21 21 22 22 22 22 22 19 15 14 17 14 15 16 14 11 11 10 12 13 13 15 16 19 17 12 13 12 14 10 14 14 16 15 8 10 11 11 11 11 10 11 11 14 11 11 11 12 12
10 11 12 13 13 14 14 14 13 14 16 17 18 19 19 21 21 23 23 23 23 20 21 14 15 14 15 17 15 10 14 13 14 15 15 16 17 16 12 12 13 12 13 13 13 14 15 17 18 17 17 15 14 11 8 8 6 6 7 10 10 12 10
9 10 11 12 14 15 16 15 16 16 17 16 17 18 19 19 20 21 21 21 21 21 18 13 16 11 10 13 13 7 12 11 14 16 17 13 13 11 10 9 9 10 11 11 12 12 16 18 19 18 17 16 14 13 11 10 10 9 8 7 8 9 9
12 11 11 11 13 14 15 17 17 16 16 16 16 17 18 19 19 19 19 18 18 19 16 12 14 13 12 13 17 14 15 15 14 13 11 11 11 11 10 9 10 11 11 12 9 9 11 19 19 18 18 16 15 14 14 8 8 12 15 14 12 12 12
12 13 12 13 13 12 13 14 14 15 16 17 18 18 18 19 19 18 17 16 18 18 15 9 7 11 12 14 13 19 18 18 16 14 12 11 12 12 11 10 11 13 13 14 9 8 10 11 18 18 17 15 14 13 14 13 9 7 7 8 7 6 6
13 12 13 14 14 13 13 13 13 13 14 14 15 16 16 18 18 17 17 17 18 17 14 13 12 12 15 18 15 19 19 19 17 16 15 12 13 15 16 16 9 13 15 17 8 9 7 12 16 16 15 15 14 13 14 13 13 12 7 4 3 3 6
14 14 14 14 14 16 15 15 14 13 14 14 13 13 14 15 15 15 16 17 5 15 15 12 11 11 13 16 14 16 16 18 17 17 17 16 15 15 15 14 16 14 14 14 9 6 5 9 13 12 13 12 12 12 12 12 11 12 13 13 15 16 16
15 15 15 14 14 15 16 16 14 15 15 16 15 15 16 15 15 15 16 18 20 19 17 15 14 11 12 11 8 13 16 16 17 17 16 18 17 16 17 17 16 13 13 11 10 9 9 12 9 12 11 12 13 11 11 10 11 11 9 11 12 12 15
15 16 16 15 14 14 14 17 15 16 16 16 13 14 14 15 16 15 16 17 19 18 18 18 15 11 11 9 5 7 17 15 17 17 18 18 18 18 18 17 17 11 11 12 12 12 12 13 11 10 11 13 16 14 7 10 13 5 12 12 13 15 15
16 16 16 16 14 15 14 16 17 17 18 16 15 15 16 17 18 17 16 14 14 14 11 8 18 9 8 8 7 5 12 17 15 19 18 18 18 17 17 18 18 11 10 13 13 13 13 13 12 16 18 10 8 7 8 8 9 10 12 13 13 14 15
18 16 16 15 16 15 14 16 15 18 18 17 17 19 20 20 19 20 19 19 17 15 16 14 8 13 7 9 6 4 5 11 4 15 16 17 17 19 18 19 18 11 12 13 13 14 14 14 11 16 10 9 7 3 8 9 9 12 12 13 14 15 15
19 18 17 17 17 16 15 14 19 20 21 21 21 21 22 23 24 22 19 17 16 17 16 16 8 8 13 8 8 7 9 10 4 11 15 17 17 20 21 20 18 13 14 14 13 12 12 11 17 10 8 7 5 7 12 9 12 10 12 13 14 14 14
Wind_Speed
6 6 6 5 4 4 5 4 4 4 2 3 3 2 2 3 3 2 2 2 1 1 1 2 2 2 2 3 3 3 3 4 5 4 5 5 5 4 4 4 4 3 4 3 3 6 5 7 6 6 6 7 7 7 7 7 7 6 6 5 6 6 6
6 6 5 5 5 5 6 4 3 4 3 2 1 3 2 3 2 2 2 2 1 1 1 2 2 3 3 3 4 3 4 4 5 5 7 5 5 4 5 5 5 4 5 4 3 2 6 7 7 7 7 6 7 7 6 7 7 6 6 6 6 7 6
6 6 5 6 6 6 7 6 5 4 4 3 2 2 2 3 3 2 2 2 2 2 2 3 3 3 2 3 3 4 4 5 3 3 4 4 4 4 4 4 4 4 5 4 5 5 6 5 6 8 8 7 6 6 5 6 6 6 6 6 6 7 6
9 7 7 6 6 6 6 6 5 4 2 3 2 3 2 3 2 3 2 3 3 3 3 2 2 2 2 2 2 3 4 4 4 4 4 4 3 4 5 4 4 5 5 5 6 5 4 5 7 7 7 6 7 7 5 5 5 6 6 6 6 6 6
9 7 8 7 7 7 7 6 5 4 3 3 3 3 3 2 2 3 2 3 4 3 3 3 3 2 2 2 2 2 3 4 4 4 4 5 4 4 4 2 2 2 2 3 4 4 5 4 5 6 6 7 7 7 7 6 6 6 6 6 6 6 6
7 8 8 7 7 6 6 6 5 4 3 4 3 4 4 3 2 3 2 3 4 4 3 3 4 4 3 2 3 3 3 3 3 4 5 5 5 5 4 4 4 4 4 2 3 3 3 4 5 5 6 6 6 6 7 6 5 5 5 6 6 6 6
6 6 6 7 7 6 6 6 6 5 4 4 4 4 4 3 4 4 4 5 5 5 5 4 4 4 2 3 4 4 5 4 4 5 5 5 4 4 4 3 3 3 4 3 3 3 4 4 5 5 5 5 5 5 5 5 5 5 5 5 5 6 5
6 6 5 6 6 6 5 5 5 5 5 5 5 4 3 4 5 5 5 5 5 5 4 4 4 4 2 4 4 4 4 4 5 5 5 6 4 4 4 4 4 4 3 3 2 2 3 2 3 4 4 6 5 4 4 4 4 5 5 5 4 5 5
5 5 6 6 5 5 5 5 6 5 5 5 5 5 4 4 6 6 6 6 5 5 4 4 3 4 3 3 4 4 4 3 4 4 4 4 4 5 4 4 4 5 4 4 3 3 3 2 3 4 4 4 6 6 4 5 4 4 2 4 6 5 5
7 7 6 7 7 7 6 5 5 5 6 6 6 5 5 5 6 6 6 6 6 5 4 4 3 4 3 3 4 4 4 3 3 4 3 4 4 4 4 4 5 5 5 4 5 4 4 2 3 3 3 3 2 4 5 5 4 4 4 3 3 5 4
7 7 7 8 6 5 6 6 6 6 6 6 6 5 6 6 7 7 6 6 6 6 5 4 4 4 3 4 4 4 4 4 4 4 4 4 4 4 5 5 5 5 5 5 5 4 4 3 3 3 2 2 2 1 3 4 5 3 5 3 3 4 4
6 6 6 8 8 7 7 6 7 6 6 7 7 6 6 6 6 7 6 6 6 6 6 6 5 4 4 5 5 5 4 4 4 4 4 4 4 4 5 5 5 5 4 5 4 4 4 4 4 4 4 3 4 3 2 5 5 3 2 4 4 3 4
7 7 7 7 7 7 7 7 8 7 7 7 7 7 6 7 7 7 6 6 7 7 7 6 6 6 5 5 5 5 5 6 6 6 6 5 4 5 5 5 5 5 4 4 4 4 4 4 4 5 5 5 5 3 2 2 5 6 3 3 3 3 3
7 6 6 6 7 7 7 7 7 6 7 6 7 7 7 7 7 7 8 7 7 6 7 6 5 5 5 5 5 6 6 6 6 6 6 5 5 5 5 6 5 4 2 3 4 3 4 4 3 3 4 4 4 3 2 4 5 6 4 2 2 3 2
6 5 7 6 6 7 7 7 7 6 6 6 7 7 8 7 6 7 7 7 7 7 6 6 5 5 5 5 5 3 4 5 5 6 4 5 4 3 3 4 5 4 3 3 3 5 5 4 4 4 3 3 4 3 3 2 4 4 5 3 3 3 3
6 6 6 6 6 7 7 7 7 7 6 5 6 6 7 8 8 8 7 7 7 7 7 7 5 5 5 5 5 4 3 3 4 4 4 4 4 4 3 3 3 3 2 3 2 3 2 2 2 4 3 3 4 3 3 2 1 4 4 4 3 4 2
5 5 6 5 6 7 7 7 7 7 7 6 6 5 6 8 8 8 8 8 7 7 7 6 6 6 6 6 5 6 5 3 3 3 3 4 4 4 3 3 3 2 2 3 2 3 2 2 1 4 4 4 4 4 3 2 2 2 2 3 2 1 3
4 5 5 5 7 7 8 8 7 8 8 8 7 7 6 7 8 8 7 9 8 8 7 7 7 6 5 5 5 5 5 5 4 3 2 2 2 2 3 3 3 3 2 2 3 3 2 2 2 3 2 3 3 3 2 1 2 1 0 2 3 2 1
5 5 6 6 7 7 7 8 8 7 8 8 9 8 8 7 7 8 8 8 9 9 8 7 7 7 7 6 5 5 4 5 5 4 5 4 4 3 3 2 3 3 3 3 3 2 1 3 1 2 2 1 3 3 2 2 1 1 1 1 2 3 1
5 5 6 7 6 7 7 8 8 8 8 8 9 8 8 8 7 8 9 9 9 9 9 8 7 7 7 6 6 5 5 4 4 3 4 5 5 5 5 5 4 4 4 2 1 2 3 3 2 3 2 1 1 3 3 2 1 1 1 1 1 1 1
3 5 5 6 7 7 7 7 8 8 8 8 9 9 10 9 9 8 8 9 9 8 8 8 8 7 6 6 5 4 4 4 4 5 5 5 6 6 7 7 7 7 7 8 8 7 5 4 4 5 3 3 2 3 3 2 2 2 2 2 3 2 1
2 3 4 6 7 7 7 7 8 8 9 8 7 9 10 11 11 10 9 9 8 7 6 6 6 7 7 6 4 4 3 3 4 4 5 5 6 6 6 6 7 8 8 5 3 3 4 5 4 4 4 3 3 3 3 3 3 3 4 4 4 3 5
2 3 4 5 5 6 7 7 8 9 9 9 8 8 9 10 10 10 10 9 8 7 6 5 5 6 3 4 4 3 3 4 5 5 5 5 5 5 6 6 6 8 6 7 7 6 5 3 5 4 1 4 6 4 3 4 4 4 4 5 5 4 6
1 3 3 4 4 5 6 6 7 8 8 8 8 7 8 9 9 9 9 9 9 7 6 5 10 11 9 5 3 2 2 3 3 4 5 4 4 5 6 7 6 8 7 7 7 9 7 5 4 2 5 8 6 3 3 4 4 2 5 4 4 4 4
2 2 3 3 4 5 5 5 6 7 7 8 7 7 8 9 9 9 8 9 8 8 7 10 12 11 12 11 7 4 3 2 2 4 5 5 6 5 4 6 4 4 5 6 6 7 7 5 4 5 6 6 7 7 6 5 2 2 1 4 5 5 4
2 2 3 4 4 4 6 6 6 7 8 8 7 9 10 10 10 10 10 11 10 8 7 12 15 12 11 12 11 7 4 4 4 3 5 5 3 5 9 4 3 3 3 9 6 6 6 6 7 8 9 9 9 9 9 9 10 7 4 4 4 4 4
2 2 3 4 4 5 6 6 5 6 6 7 9 9 10 11 11 11 11 11 11 9 9 12 13 12 11 11 11 7 4 4 2 3 5 5 7 8 4 3 4 4 4 6 5 6 6 7 8 7 7 6 5 6 6 7 5 4 4 3 3 4 3
2 2 3 3 4 6 6 6 6 6 6 6 7 7 9 10 9 10 10 10 10 9 8 12 14 10 9 11 10 7 5 4 1 4 7 4 4 4 3 3 3 2 4 5 4 6 7 8 8 8 8 7 6 6 4 3 2 1 1 1 1 2 2
4 4 3 3 4 5 7 7 8 7 6 7 7 7 7 7 8 9 9 8 9 9 5 11 12 11 10 10 11 5 6 5 5 5 4 4 4 3 3 3 3 4 4 5 7 8 8 8 9 9 9 8 7 5 5 5 4 7 7 5 4 4 4
4 5 5 5 5 4 5 6 6 6 6 7 7 8 8 8 7 7 7 7 8 8 6 6 7 9 10 11 9 8 8 6 6 7 5 4 4 4 3 1 4 4 6 6 7 7 9 10 9 9 8 7 6 5 5 4 5 6 7 7 6 5 4
5 4 5 6 6 5 5 5 5 5 5 5 6 7 7 7 7 6 7 7 8 8 6 8 10 9 11 15 12 8 8 8 8 7 6 5 5 5 7 12 7 5 7 7 7 8 7 8 7 7 7 7 6 5 5 5 4 4 4 3 3 3 6
6 6 6 6 6 7 7 6 5 5 5 5 5 5 6 6 6 6 6 8 3 7 6 7 9 10 11 14 10 6 6 7 7 7 7 7 6 6 6 8 13 9 8 9 7 5 4 5 5 5 6 5 4 4 4 5 4 4 5 5 6 7 7
7 7 7 6 6 6 7 6 6 6 6 6 5 6 5 5 6 6 6 8 7 8 7 7 8 10 11 10 8 3 7 7 7 8 7 8 7 7 7 7 8 10 11 9 9 9 8 10 1 5 4 5 5 4 3 2 3 3 2 3 4 5 7
7 8 7 7 6 6 6 7 6 7 7 6 5 6 6 6 6 6 7 8 9 8 6 7 6 9 9 8 4 5 6 6 7 7 7 7 7 7 7 7 7 7 10 11 10 10 10 11 10 3 3 5 6 7 3 2 4 3 4 4 5 6 6
7 7 7 7 6 6 6 6 6 7 7 6 7 7 8 8 8 7 7 7 7 6 6 6 9 6 7 7 6 4 2 8 6 8 7 7 7 7 7 7 7 7 9 11 11 11 11 11 10 7 8 8 7 6 1 2 2 3 4 4 5 5 6
8 6 7 7 7 7 6 6 7 8 8 8 8 9 10 9 9 9 8 7 7 6 7 6 7 8 6 6 3 3 4 7 3 6 7 7 7 8 8 9 8 9 10 10 11 11 11 11 9 8 8 8 6 1 5 2 2 4 4 4 5 6 5
9 8 8 8 8 8 7 6 7 8 9 9 9 10 9 9 10 10 9 7 6 7 7 7 5 5 7 6 7 5 8 8 2 2 6 6 7 8 9 9 10 11 11 11 11 10 10 10 8 8 6 5 4 5 4 2 3 2 4 5 5 5 5
Wind_Direction
144 135 140 128 119 122 121 129 131 134 151 130 122 100 99 98 92 106 116 110 123 131 184 184 181 176 171 133 151 180 181 174 177 209 193 187 201 172 204 214 218 227 211 225 227 178 153 149 134 92 86 83 81 74 73 76 77 75 69 66 75 71 64
132 136 140 137 133 128 128 129 121 117 122 93 81 109 102 85 93 90 103 135 116 98 113 103 102 86 90 123 148 174 170 198 212 194 190 199 204 169 184 190 200 189 176 190 207 237 146 146 133 121 102 90 94 83 76 79 81 76 69 63 62 77 79
133 136 143 142 141 145 133 136 137 142 130 138 127 106 101 99 77 80 112 111 107 101 84 80 88 88 96 132 152 165 165 169 187 214 198 177 197 156 214 173 188 164 169 165 184 196 166 160 139 142 140 147 119 94 95 99 95 90 86 76 69 64 64
142 144 143 153 149 149 139 140 142 126 130 114 132 123 99 92 79 55 75 100 101 93 92 101 70 75 109 121 130 148 160 169 176 177 184 173 176 174 205 189 179 181 172 174 179 190 175 160 141 144 155 130 115 115 97 84 92 96 94 88 77 63 67
146 151 152 154 158 148 144 141 132 135 131 123 136 124 112 78 78 77 90 115 103 92 82 63 68 79 70 88 128 147 139 149 145 163 161 159 177 169 194 179 220 190 200 206 176 187 188 166 158 153 139 133 131 117 123 114 94 82 65 64 70 74 61
153 152 151 152 153 150 149 142 142 136 138 141 134 122 99 92 93 105 96 110 109 90 68 64 72 55 49 79 95 103 116 125 134 144 156 160 168 160 183 168 192 159 144 124 151 160 145 140 152 163 144 147 122 131 135 142 117 85 76 74 64 52 62
153 154 152 152 156 150 145 144 143 136 139 130 128 105 104 99 82 78 82 83 78 77 71 71 70 68 46 105 85 86 85 81 92 108 113 128 128 135 140 131 110 108 80 75 87 110 134 160 161 162 143 125 145 150 148 152 145 132 98 77 65 64 59
157 157 157 148 151 144 136 140 127 136 136 137 124 109 104 96 100 95 88 85 81 78 80 82 93 94 66 104 84 75 74 84 88 95 99 106 108 95 72 79 95 90 87 91 86 97 141 148 154 155 169 146 156 148 141 122 108 74 110 75 58 76 67
149 158 152 147 142 141 143 140 126 133 134 130 118 120 114 111 107 109 102 92 88 86 84 86 91 92 81 85 89 85 86 81 91 95 106 97 84 84 88 92 98 89 90 93 103 73 67 94 119 145 172 167 157 150 156 137 126 101 64 112 96 59 73
155 166 153 151 152 148 144 132 129 132 135 137 129 126 125 118 114 105 103 99 94 92 92 89 89 89 86 85 88 92 85 75 72 69 63 83 88 91 90 87 91 97 84 75 78 91 93 116 127 157 192 182 192 146 164 145 128 129 99 10 87 83 68
164 163 158 147 139 152 142 135 135 146 155 142 140 139 134 129 121 119 112 108 102 102 102 104 100 102 109 98 99 99 84 88 94 92 91 93 91 98 105 103 101 96 87 91 86 85 95 99 122 138 140 119 245 166 154 141 115 91 112 91 47 91 85
163 157 156 149 159 159 149 146 146 156 155 153 151 150 149 139 133 125 122 118 115 111 110 109 117 114 114 112 118 112 114 113 104 101 94 94 104 108 106 105 106 100 100 98 106 102 104 112 108 103 82 67 61 49 93 124 137 78 13 100 81 52 68
169 163 154 160 155 155 151 153 154 166 165 163 155 159 155 147 141 137 131 125 125 120 119 118 116 120 124 123 132 124 120 127 122 119 121 125 122 119 119 116 109 106 114 121 104 91 81 63 59 81 87 86 75 52 33 64 96 112 71 80 100 112 109
163 156 153 162 151 152 150 156 163 169 167 169 158 161 157 154 149 145 141 141 134 130 123 122 121 122 120 122 116 121 137 135 132 127 125 129 131 142 131 120 119 115 116 106 113 122 105 99 96 81 84 93 85 62 58 101 114 117 115 112 135 101 83
165 160 151 156 153 150 151 162 161 168 173 171 168 162 157 153 153 152 148 142 141 135 133 123 131 124 120 119 116 121 135 138 123 119 137 130 119 112 132 131 126 124 123 116 152 144 136 148 141 134 115 93 93 82 20 72 116 129 128 158 149 140 130
177 160 154 156 154 155 155 158 167 164 178 173 180 172 157 161 160 155 151 150 147 146 143 139 136 137 132 138 133 129 126 120 126 135 143 137 139 120 130 125 130 129 143 144 165 79 114 156 134 91 95 95 98 97 88 57 107 115 145 129 161 170 135
167 167 171 173 162 162 162 162 173 174 172 179 183 179 168 172 166 163 158 156 154 155 151 150 152 152 148 143 148 145 149 146 151 158 154 158 145 153 150 156 143 153 165 158 162 136 168 121 144 114 131 122 122 106 90 101 47 78 127 145 156 228 118
173 179 194 201 188 172 166 164 173 181 176 176 183 180 184 182 175 170 166 164 158 159 159 159 156 154 148 160 156 154 164 161 162 171 166 148 145 187 166 189 161 161 183 182 170 196 145 195 176 142 154 137 126 109 125 63 75 83 152 123 128 78 214
194 198 209 218 202 189 177 173 171 183 184 182 176 183 186 186 186 175 175 169 162 161 160 159 162 163 159 165 168 170 174 171 181 183 177 197 190 196 214 205 182 189 192 204 200 190 172 202 199 206 169 220 112 111 97 111 107 53 296 137 173 170 183
213 222 219 217 203 197 191 183 180 184 186 186 178 178 185 185 188 186 178 170 169 166 161 163 159 159 163 164 166 165 170 174 178 185 191 197 200 202 209 207 202 197 201 194 15 261 234 225 224 242 178 188 193 138 188 185 173 173 237 216 192 298 230
237 229 229 216 208 207 200 200 202 192 189 191 192 188 181 187 184 190 176 175 169 165 162 163 161 162 165 158 160 168 173 186 194 190 200 211 208 210 211 211 207 203 202 202 204 211 198 243 231 224 191 211 197 186 215 182 220 237 228 258 302 283 276
260 235 227 225 214 208 209 213 219 213 204 202 202 202 194 187 185 186 176 174 165 163 168 164 162 163 162 164 170 179 191 208 223 225 222 221 219 222 225 220 218 217 211 207 193 257 348 344 245 222 204 207 217 223 236 242 235 264 277 289 267 246 286
225 229 226 224 223 225 226 223 219 216 213 212 206 210 205 197 192 185 176 172 163 161 170 174 131 98 85 145 171 186 192 226 239 246 249 253 243 233 234 230 218 215 193 172 174 205 238 283 313 332 249 195 235 235 239 255 262 276 302 289 290 318 296
229 223 223 225 217 226 226 221 220 220 219 218 212 205 205 194 192 190 187 173 169 170 175 176 154 160 157 166 183 184 229 237 247 246 251 249 248 252 238 229 229 175 170 159 189 197 212 202 231 330 29 51 35 351 262 241 258 300 290 289 302 294 296
276 262 245 237 237 239 237 233 231 232 230 226 217 213 210 209 206 207 211 203 189 183 186 142 174 180 173 169 183 183 201 232 246 264 264 257 251 258 267 250 214 179 202 199 220 186 179 169 162 127 97 81 68 60 47 13 319 253 275 293 295 289 300
288 254 240 244 240 246 238 231 233 230 232 234 234 231 226 222 224 220 219 223 221 201 188 161 182 189 174 171 174 178 182 204 213 224 244 246 281 273 247 224 202 192 135 124 201 195 172 142 104 102 107 97 68 56 45 39 32 13 340 302 285 292 295
306 285 271 256 242 233 235 225 223 229 235 235 234 235 233 230 231 231 229 232 231 222 222 173 185 194 178 170 165 175 172 175 204 260 251 229 226 235 245 235 230 195 157 177 197 186 158 150 149 147 155 163 140 105 90 85 80 46 345 323 315 301 0
332 328 304 281 260 247 235 225 219 221 223 228 231 234 236 233 231 229 229 229 231 214 212 155 189 198 166 161 158 177 148 122 139 241 248 247 242 234 226 217 237 211 158 174 156 151 152 156 159 163 167 163 157 162 130 108 58 28 139 237 316 333 327
325 303 284 269 257 248 242 239 231 220 231 233 227 226 227 229 227 225 224 223 228 223 178 162 174 175 161 153 152 151 153 151 186 217 211 208 196 181 179 176 168 150 143 134 95 131 159 161 161 162 161 155 142 114 81 68 43 34 29 24 24 16 24
325 303 295 285 273 264 249 237 236 233 229 230 229 224 229 229 227 223 217 215 208 210 158 136 161 165 164 164 173 170 166 159 161 186 179 157 142 99 77 83 141 136 133 121 122 143 157 172 157 162 160 156 149 145 135 129 89 66 60 64 61 61 54
317 310 286 275 272 268 258 247 242 225 231 228 224 223 221 223 224 222 214 212 204 204 164 159 171 176 175 180 209 171 164 167 167 156 144 128 110 93 56 21 1 124 119 126 134 139 162 187 162 161 160 156 166 167 145 145 158 130 140 167 169 192 195
313 310 305 294 284 268 253 248 244 231 227 226 218 214 209 208 208 207 209 208 159 206 177 143 166 178 189 193 226 168 171 151 155 149 141 129 116 110 93 56 32 45 89 110 114 98 14 304 163 161 159 182 185 186 146 163 177 182 184 199 193 195 208
305 300 299 304 299 284 267 249 232 230 228 226 203 202 198 205 192 197 183 198 183 204 157 153 157 172 188 201 243 239 162 159 151 148 148 137 130 115 108 99 70 61 84 85 76 60 41 6 112 149 180 204 222 205 141 152 42 346 298 277 291 281 285
306 302 294 294 295 286 272 259 239 229 228 228 210 193 188 180 166 161 163 175 171 166 163 149 151 173 183 191 205 252 161 160 153 154 145 145 143 139 131 112 105 72 84 85 83 72 58 38 18 77 45 57 47 47 358 173 133 228 266 272 269 266 264
303 297 292 284 281 277 265 253 251 238 234 223 197 181 183 180 171 162 151 159 154 131 86 107 152 175 184 183 201 348 271 159 162 155 153 153 143 137 127 125 119 92 89 89 85 81 71 63 57 78 72 77 55 32 336 329 265 241 269 268 279 284 283
289 288 287 280 273 272 267 248 239 243 240 229 212 200 185 181 174 169 164 158 144 140 139 116 130 152 161 169 153 52 4 117 66 166 158 150 138 128 121 111 102 101 100 97 92 91 94 97 90 90 98 85 85 43 273 245 342 285 276 290 294 288 287
278 276 276 275 266 261 257 251 241 232 230 228 218 210 201 184 180 169 167 154 146 149 151 140 105 129 152 153 133 110 100 100 2 202 154 145 133 128 131 128 124 123 110 101 89 76 65 67 92 109 106 128 176 238 259 249 244 270 285 271 273 282 296